Actualité

 

LogoChallengeNewsletter

Challenge du Pays Boulonnais
En raison des nombreuses annulations de courses en cette année 2020 le Challenge du Pays Boulonnais est reporté à 2021.
 
La cagnotte "Chronopale 2020" à partager entre tous les coureurs classés sur les 9 épreuves sera de 850€
Date des épreuves 2020
  1.  09/02/20 Les 6 Miles de Pont de Briques (Annulés)
  2.  08/03/20 Semi Marathon de la Terre des 2 Caps à Ferques (Sauf pour les cadets)
  3.  01/05/20 La Ronde du Fort de l'Heurt à Le Portel 10 Km (nature plage et falaise) (Annulée)
  4.  07/06/20 La Win Run à Wimereux 10 Km (Annulée)
  5.  28/06/20 Boulogne le 10 Km (Annulé)
  6.  11/10/20 Les Foulées de la Santé à Saint Martin 10 Km (Annulées)
  7.  15/11/20 Les Foulées Outreloises à Outreau  10 Km  (Annulées)           
  8.  22/11/20 Les Foulées de la Sainte Catherine à Menneville 10 Km (Annulées)
  9.  05/12/20 Rues & Run Desvroises 10 Km

 

 

Nous contacter

Chronopale
59 Rue Léonce TOBO
62200 Boulogne sur mer
06 60 17 22 13
contact@chronopale.fr
www.chronopale.fr

 

10Km

10 Km Corrida St Just en Chaussee du 15/12/19 (Reelle 9,85)
Rang Dossard Nom Prénom Temps Cat Rang Cat Ecart Ecart Cat Club Vitesse Km/h Temps au Km
1 22 NOIZIER Jerome 00:33:18 V1M 1 00:00:00 00:00:00 Sud Aisne athle 17,748 03:23
2 45 GERARD Romuald 00:34:28 V1M 2 00:01:10 00:01:10 Eoa-S/l Ea Creil 17,147 03:30
3 128 LHEUREUX Fabien 00:34:50 SEM 1 00:01:32 00:00:00 Amicale  du val de somme 16,967 03:32
4 79 DEWANCKELE Eric 00:34:55 V1M 3 00:01:37 00:01:37 16,926 03:33
5 102 MORTELECQ Matthieu 00:34:57 V1M 4 00:01:39 00:01:39 16,910 03:33
6 183 OLIVAR CALUO JULIEN 00:35:27 SEM 2 00:02:09 00:00:37 ENTENTE OISE ATHLETISME 16,671 03:36
7 23 TUROWSKY Cedric 00:36:22 SEM 3 00:03:04 00:01:32 Verberie Endurance Route Trail 16,251 03:42
8 126 BOURLET Mathieu 00:36:29 SEM 4 00:03:11 00:01:39 16,199 03:42
9 169 BRETON AURELIEN 00:36:38 V1M 5 00:03:20 00:03:20 FREE RUN 16,133 03:43
10 40 INGRAIN Christophe 00:36:41 V1M 6 00:03:23 00:03:23 Eoa-S/l Ea Creil 16,111 03:43
11 190 MARECHAL NICOLAS 00:36:55 SEM 5 00:03:37 00:02:05 CPBO 16,009 03:45
12 176 TALLON ROMAIN 00:37:03 SEM 6 00:03:45 00:02:13 - 15,951 03:46
13 177 FRANCIER PIERRE 00:37:21 SEM 7 00:04:03 00:02:31 15,823 03:48
14 182 WATTIER MATTHIEU 00:37:32 V1M 7 00:04:14 00:04:14 CPBO 15,746 03:49
15 42 OLLIER Christophe 00:37:38 V1M 8 00:04:20 00:04:20 Ac margny 15,704 03:49
16 66 TEDESCHI Pierre 00:37:41 V1M 9 00:04:23 00:04:23 15,683 03:50
17 167 BOUILLAUX KARL 00:38:29 ESM 1 00:05:11 00:00:00 15,357 03:54
18 121 PELLERAY Nathan 00:38:35 ESM 2 00:05:17 00:00:06 15,317 03:55
19 193 MIGNOT BORIS 00:38:41 V1M 10 00:05:23 00:05:23 AC NOYON 15,278 03:56
20 147 PHILIPPE Paul 00:38:42 SEM 8 00:05:24 00:03:52 15,271 03:56
21 141 RAYE Sebastien 00:38:50 V1M 11 00:05:32 00:05:32 Mouy atac 15,219 03:57
22 145 SOTIN Sebastien 00:39:01 SEM 9 00:05:43 00:04:11 As Blacourt 15,147 03:58
23 162 JARDE DAVID 00:39:43 V1M 12 00:06:25 00:06:25 SAINT JUST ATHLETISME 14,880 04:02
24 197 CRAPANZZANO ALEX 00:39:47 SEM 10 00:06:29 00:04:57 14,855 04:02
25 43 FARIDA Rahouti Ollier 00:39:58 SEF 1 00:06:40 00:00:00 Ac margny les Compiegne 14,787 04:03
26 122 PELLERAY Florian 00:39:59 SEM 11 00:06:41 00:05:09 14,781 04:04
27 131 BROUILLARD Mathieu 00:40:28 SEM 12 00:07:10 00:05:38 bouc athletisme 14,605 04:06
28 148 THOREL Frederic 00:40:38 SEM 13 00:07:20 00:05:48 14,545 04:08
29 135 FOURNIER Jean-Charles 00:40:58 V1M 13 00:07:40 00:07:40 bouc athletisme 14,426 04:10
30 11 ROBILLARD Matthieu 00:41:18 SEM 14 00:08:00 00:06:28 14,310 04:12
31 120 SOUVIGNHEC Stephane 00:41:20 V1M 14 00:08:02 00:08:02 14,298 04:12
32 130 HANOCQUE Tony 00:41:24 V1M 15 00:08:06 00:08:06 bouc athletisme 14,275 04:12
33 160 DAMEZ Frederic 00:41:30 V1M 16 00:08:12 00:08:12 VGA 14,241 04:13
34 77 BRISPOT Sebastien 00:41:33 V1M 17 00:08:15 00:08:15 cc thelle 14,224 04:13
35 13 VIDAL Damien 00:41:45 SEM 15 00:08:27 00:06:55 ASSOCIATION SPORTIVE AGNETZ ATHLETISME 14,156 04:14
36 80 BARIGAND Cedric 00:41:50 SEM 16 00:08:32 00:07:00 ACCLRL 14,127 04:15
37 194 DESCHAMPS DIMITRI 00:41:54 V1M 18 00:08:36 00:08:36 - 14,105 04:15
38 133 HAUSER Noel 00:42:03 V1M 19 00:08:45 00:08:45 BOUC ATHLETISME 14,055 04:16
39 186 BRETON THOMAS 00:42:14 SEM 17 00:08:56 00:07:24 - 13,994 04:17
40 129 BOCAUT Gabrielle 00:42:21 SEF 2 00:09:03 00:02:23 bouc athletisme 13,955 04:18
41 36 WINTREBERT Herve 00:42:31 V2M 1 00:09:13 00:00:00 Nogent sur Oise athletisme 13,900 04:19
42 86 DUBUS Jean-Francois 00:42:48 V2M 2 00:09:30 00:00:17 AC CLERMONT 13,808 04:21
43 100 WERQUIN Gilles 00:42:51 SEM 18 00:09:33 00:08:01 FROISSY ATHLETIC CLUB 13,792 04:21
44 83 RUDNIK Frederic 00:42:51 V1M 20 00:09:33 00:09:33 AC CLERMONT 13,792 04:21
45 91 CARLIER Steeve 00:42:54 V1M 21 00:09:36 00:09:36 NOA 13,776 04:21
46 87 LURON Morgane 00:43:03 SEF 3 00:09:45 00:03:05 AC CLERMONT 13,728 04:22
47 2 MOTA Sebastien 00:43:11 SEM 19 00:09:53 00:08:21 13,686 04:23
48 187 GONCALIVES CHRISTOPHE 00:43:12 V1M 22 00:09:54 00:09:54 - 13,681 04:23
49 158 BRECHE Quentin 00:43:14 SEM 20 00:09:56 00:08:24 13,670 04:23
50 181 MARCEAU ALAIN 00:43:22 V3M 1 00:10:04 00:00:00 13,628 04:24
51 196 BARBIER SEBASTIEN 00:43:31 V1M 23 00:10:13 00:10:13 LES PAS PRESSES 13,581 04:25
52 166 LARENAUDIE SYLVAIN 00:43:38 V2M 3 00:10:20 00:01:07 13,545 04:26
53 9 BIENAIME Jean-Baptiste 00:43:41 V1M 24 00:10:23 00:10:23 13,529 04:26
54 14 HUBERT Delphine 00:43:45 SEF 4 00:10:27 00:03:47 13,509 04:26
55 89 GUEFVENEU Yannick 00:43:48 V1M 25 00:10:30 00:10:30 AC CLERMONT 13,493 04:27
56 103 ESCOFFIER Remy 00:43:49 V1M 26 00:10:31 00:10:31 13,488 04:27
57 65 UMEC Didier 00:44:13 V2M 4 00:10:55 00:01:42 13,366 04:29
58 191 TAGETTO ALEXANDRE 00:44:23 V1M 27 00:11:05 00:11:05 CPBO 13,316 04:30
59 29 ZIDAT Ahmed 00:44:37 V2M 5 00:11:19 00:02:06 Nogent sur Oise Athletisme 13,246 04:32
60 75 PECHON FREMAUX Perrine 00:44:39 V1F 1 00:11:21 00:00:00 ENAA S/L ASG GAUCHY 13,236 04:32
61 88 LEROY Bertrand 00:44:42 SEM 21 00:11:24 00:09:52 AC CLERMONT 13,221 04:32
62 94 MACHON Marie Pierre 00:44:52 V1F 2 00:11:34 00:00:13 PIERREFITTE MULTI ATHLON VILLETANEUSE 13,172 04:33
63 178 RICHY WILFRIED 00:45:18 SEM 22 00:12:00 00:10:28 LES PAS PRESSES 13,046 04:36
64 18 GREVIN Remy 00:45:36 SEM 23 00:12:18 00:10:46 Les pas presse 12,961 04:38
65 140 DELAMARRE Noemie 00:45:40 SEF 5 00:12:22 00:05:42 S/L Froissy athletic club 12,942 04:38
66 115 HERNANDEZ Magalie 00:46:01 V1F 3 00:12:43 00:01:22 12,843 04:40
67 110 BACON Herve 00:46:01 V2M 6 00:12:43 00:03:30 12,843 04:40
68 46 JAULIN Antoine 00:46:03 SEM 24 00:12:45 00:11:13 12,834 04:41
69 8 DELMAS Gregoire 00:46:04 SEM 25 00:12:46 00:11:14 12,829 04:41
70 99 COULON Gregory 00:46:09 V1M 28 00:12:51 00:12:51 S/L FROISSY ATHLETIC CLUB 12,806 04:41
71 64 TOMPOUSKY Joel 00:46:30 V1M 29 00:13:12 00:13:12 12,710 04:43
72 34 LEGRAND Gervais 00:46:31 V2M 7 00:13:13 00:04:00 12,705 04:43
73 156 MESSIO Melanie 00:46:32 SEF 6 00:13:14 00:06:34 AUC 12,701 04:43
74 170 PONZA JULIEN 00:46:35 ESM 3 00:13:17 00:08:06 12,687 04:44
75 4 RENARD Arnaud 00:46:38 SEM 26 00:13:20 00:11:48 12,673 04:44
76 188 SONNECK FRANCK 00:46:43 V2M 8 00:13:25 00:04:12 saint just raid aventure 12,651 04:45
77 97 BERNARD Gaylor 00:46:57 SEM 27 00:13:39 00:12:07 Montdidier athletix 12,588 04:46
78 192 HAUTECLOCHE MORGANE 00:47:05 SEF 7 00:13:47 00:07:07 PIEDS MOBILES 12,552 04:47
79 21 MONIER Jacques 00:47:06 V2M 9 00:13:48 00:04:35 12,548 04:47
80 55 ROUGE Alain 00:47:31 V3M 2 00:14:13 00:04:09 12,438 04:49
81 154 CARON Sebastien 00:47:42 SEM 28 00:14:24 00:12:52 12,390 04:51
82 161 DROUOT BRICE 00:47:45 SEM 29 00:14:27 00:12:55 SAINT JUST ATHLETISME 12,377 04:51
83 155 DIOT Ludovic 00:47:56 V1M 30 00:14:38 00:14:38 RABE 12,330 04:52
84 24 MINARD Gilles 00:48:11 V2M 10 00:14:53 00:05:40 Verberie Endurance Route Trail 12,266 04:54
85 117 LAJOIX Valerie 00:48:21 V2F 1 00:15:03 00:00:00 12,223 04:55
86 164 CANNY THIERRY 00:48:55 V1M 31 00:15:37 00:15:37 12,082 04:58
87 165 CANNY ANTHONY 00:48:55 JUM 1 00:15:37 00:00:00 12,082 04:58
88 136 PERONNE Evelyne 00:49:00 V3F 1 00:15:42 00:00:00 12,061 04:58
89 7 MORTIER Jean-Claude 00:49:03 V3M 3 00:15:45 00:05:41 12,049 04:59
90 168 LEFEURRE STANISLAS 00:49:03 POM 1 00:15:45 00:00:00 - 12,049 04:59
91 153 DEVAUX Robert 00:49:12 V4M 1 00:15:54 00:00:00 12,012 05:00
92 90 DEHAIES Eric 00:49:18 SEM 30 00:16:00 00:14:28 11,988 05:00
93 84 DEPLANQUE Jean-Noel 00:49:28 V1M 32 00:16:10 00:16:10 AC CLERMONT 11,947 05:01
94 37 BOIVIN Alexandra 00:49:36 SEF 8 00:16:18 00:09:38 Eoa-S/l Ea Creil 11,915 05:02
95 41 LEFEVRE Sebastien 00:49:36 SEM 31 00:16:18 00:14:46 Eoa-S/l Ea Creil 11,915 05:02
96 73 LACOURTE Mickael 00:49:51 V1M 33 00:16:33 00:16:33 11,856 05:04
97 61 BOUVIER Jonathan 00:49:57 SEM 32 00:16:39 00:15:07 11,832 05:04
98 28 JOUY Justin 00:49:59 CAM 1 00:16:41 00:00:00 11,824 05:04
99 139 LAMARRE Alexandre 00:50:04 SEM 33 00:16:46 00:15:14 11,804 05:05
100 81 MORIN Cedric 00:50:14 V1M 34 00:16:56 00:16:56 AC CLERMONT 11,765 05:06
101 175 FRITSCH JIM 00:50:24 ESM 4 00:17:06 00:11:55 - 11,726 05:07
102 20 TAILLOUL Mehdi 00:50:24 SEM 34 00:17:06 00:15:34 11,726 05:07
103 12 WAEYAERT Clementine 00:50:25 SEF 9 00:17:07 00:10:27 11,722 05:07
104 85 BROUET Arnaud 00:50:29 SEM 35 00:17:11 00:15:39 AC CLERMONT 11,707 05:08
105 39 HOOGEWYS Patrick 00:50:39 V3M 4 00:17:21 00:07:17 Eoa-S/l Ea Creil 11,668 05:09
106 25 PINAUD Dominique 00:50:50 V2F 2 00:17:32 00:02:29 NOA 11,626 05:10
107 174 FRITSCH KATIA 00:50:51 V1F 4 00:17:33 00:06:12 - 11,622 05:10
108 10 ROY GEERSSEN Sabrina 00:50:52 V1F 5 00:17:34 00:06:13 11,619 05:10
109 44 DESPRAT Stephane 00:51:02 SEM 36 00:17:44 00:16:12 Saint Leu Athletisme 11,581 05:11
110 180 CARON FRANCK 00:51:26 V1M 35 00:18:08 00:18:08 - 11,491 05:13
111 27 SALAUN Maxence 00:51:34 CAM 2 00:18:16 00:01:35 11,461 05:14
112 47 KURTZEMANN Charles-Antoine 00:51:43 SEM 37 00:18:25 00:16:53 11,428 05:15
113 173 JAFFRE JULIE 00:51:46 SEF 10 00:18:28 00:11:48 - 11,417 05:15
114 63 SAROUILLE Herve 00:51:52 V2M 11 00:18:34 00:09:21 11,395 05:16
115 171 RIVIERE LAURENCE 00:52:04 V1F 6 00:18:46 00:07:25 LES PAS PRESSES 11,351 05:17
116 195 DOVA BENJAMIN 00:52:04 SEM 38 00:18:46 00:17:14 LES PAS PRESSES 11,351 05:17
117 71 WATIN Dominique 00:52:21 V3M 5 00:19:03 00:08:59 11,289 05:19
118 51 MIGNON Sebastien 00:52:41 V1M 36 00:19:23 00:19:23 as agnetz athletisme 11,218 05:21
119 152 DEVAUX Stephane 00:52:49 V1M 37 00:19:31 00:19:31 11,190 05:22
120 172 CAILLET ELIE 00:52:51 V1M 38 00:19:33 00:19:33 GRAVITY RUNNING EXPERIENCE 11,183 05:22
121 59 DEVAUCHELLES Mathilde 00:52:56 SEF 11 00:19:38 00:12:58 11,165 05:22
122 19 TAILLOUL Tahar 00:53:00 V2M 12 00:19:42 00:10:29 CPBO 11,151 05:23
123 17 DUVAL Michael 00:53:18 V1M 39 00:20:00 00:20:00 LES PAS PRESSES 11,088 05:25
124 33 PAUCELLIER Romaric 00:53:19 V1M 40 00:20:01 00:20:01 les Pas Pressses 11,085 05:25
125 82 POSEDEL Anne 00:53:42 V2F 3 00:20:24 00:05:21 AC CLERMONT 11,006 05:27
126 26 CLABAUT Jessica 00:54:05 V1F 7 00:20:47 00:09:26 Les Pas Presses 10,928 05:29
127 53 LECOUTURIER Jerome 00:54:16 V2M 13 00:20:58 00:11:45 10,891 05:31
128 149 GAUTIER Stephanie 00:54:35 SEF 12 00:21:17 00:14:37 10,827 05:32
129 179 CHEPTOU NATHALIE 00:54:39 V1F 8 00:21:21 00:10:00 - 10,814 05:33
130 72 HEURTE Jean 00:54:50 V4M 2 00:21:32 00:05:38 10,778 05:34
131 116 HUET Berenice 00:54:52 V1F 9 00:21:34 00:10:13 10,772 05:34
132 38 HOOGEWYS Marie-Therese 00:55:01 V3F 2 00:21:43 00:06:01 Eoa-S/l Ea Creil 10,742 05:35
133 106 BLEUSE Antoine 00:55:04 ESM 5 00:21:46 00:16:35 10,732 05:35
134 137 SANNIER Sebastien 00:55:08 V1M 41 00:21:50 00:21:50 10,719 05:36
135 138 MEDEIROS Cristina 00:55:08 V1F 10 00:21:50 00:10:29 10,719 05:36
136 48 BRIOIS Gaelle 00:55:20 SEF 13 00:22:02 00:15:22 10,681 05:37
137 114 EVRARD Patrick 00:55:59 V2M 14 00:22:41 00:13:28 10,557 05:41
138 52 WATTIER Denis 00:56:31 V4M 3 00:23:13 00:07:19 as agnetz athletisme 10,457 05:44
139 60 ROBILLARD Nathan 00:56:48 SEM 39 00:23:30 00:21:58 10,405 05:46
140 101 RAES Aurelie 00:56:53 SEF 14 00:23:35 00:16:55 AC CLERMONT 10,390 05:46
141 113 DAD Gerard 00:57:07 V2M 15 00:23:49 00:14:36 10,347 05:48
142 123 PELLERAY Laurence 00:57:10 V1F 11 00:23:52 00:12:31 10,338 05:48
143 189 BOURGOIN STEPHANE 00:57:17 V2M 16 00:23:59 00:14:46 - 10,317 05:49
144 143 VECTEN Gauthier 00:58:23 SEM 40 00:25:05 00:23:33 10,123 05:56
145 98 VANBLEUS Loic 00:58:52 SEM 41 00:25:34 00:24:02 10,040 05:59
146 93 DELAHOCHE Audrey 00:58:52 SEF 15 00:25:34 00:18:54 10,040 05:59
147 157 FAGARD Sonia 00:59:10 SEF 16 00:25:52 00:19:12 9,989 06:00
148 109 LEGALLAIS Pascal 01:00:11 V3M 6 00:26:53 00:16:49 US CHEMINOTS NOUVION SUR MEUSE 9,820 06:07
149 70 LINGLET Camille 01:00:36 SEF 17 00:27:18 00:20:38 9,752 06:09
150 56 DESMAREST Vinola 01:00:38 SEF 18 00:27:20 00:20:40 9,747 06:09
151 57 DESMAREST Gregory 01:00:38 SEM 42 00:27:20 00:25:48 9,747 06:09
152 107 CONSTANS Thierry 01:01:04 V2M 17 00:27:46 00:18:33 9,678 06:12
153 159 PERLA Dominique 01:01:06 V4F 1 00:27:48 00:00:00 Dominique PERLA 9,673 06:12
154 105 WURTZ Didier 01:01:07 V3M 7 00:27:49 00:17:45 9,670 06:12
155 119 SEMBLANET Guy 01:01:29 V3M 8 00:28:11 00:18:07 9,612 06:15
156 58 TAILLOUL Georges 01:01:33 SEM 43 00:28:15 00:26:43 9,602 06:15
157 30 SYLVAIN Murzeau 01:02:05 V2M 18 00:28:47 00:19:34 9,519 06:18
158 68 JUCHTZER Celine 01:02:18 V1F 12 00:29:00 00:17:39 9,486 06:19
159 67 MORLON Ludovic 01:02:19 V1M 42 00:29:01 00:29:01 9,484 06:20
160 146 DAUCHY Jacques 01:02:25 V5M 1 00:29:07 00:00:00 As Blacourt 9,469 06:20
161 112 CERTAL Patricia 01:03:52 V1F 13 00:30:34 00:19:13 9,254 06:29
162 16 ALLEAUME Sandrine 01:05:57 V1F 14 00:32:39 00:21:18 8,961 06:42
163 74 MARIE Christelle 01:06:48 V1F 15 00:33:30 00:22:09 LES PAS PRESSES 8,847 06:47
164 124 DUBOURDEAUX Corinne 01:06:48 V1F 16 00:33:30 00:22:09 LES PAS PRESSES 8,847 06:47
165 151 PAPA Sabrina 01:06:49 V1F 17 00:33:31 00:22:10 LES PAS PRESSES 8,845 06:47
166 142 HULIN Laurence 01:06:49 V2F 4 00:33:31 00:18:28 Les pas presses 8,845 06:47
167 76 BUEE Virginie 01:06:49 V1F 18 00:33:31 00:22:10 LES PAS PRESSES 8,845 06:47
168 96 LOUCHET Catherine 01:06:49 V1F 19 00:33:31 00:22:10 les pas presses 8,845 06:47
169 62 HUYSMAN Fabienne 01:06:50 V1F 20 00:33:32 00:22:11 LES PAS PRESSES 8,843 06:47
170 49 TAILLOUL Sophie 01:07:51 V2F 5 00:34:33 00:19:30 8,710 06:53
171 78 LANDRY Nathalie 01:08:58 V1F 21 00:35:40 00:24:19 ccthelle 8,569 07:00
172 31 LAMBIN Jean-Paul 01:13:21 SEM 44 00:40:03 00:38:31 8,057 07:27
173 32 BORTHIEWIEZ Angelina 01:13:21 SEF 19 00:40:03 00:33:23 8,057 07:27
174 185 BARSI FABRICE 01:14:15 V1M 43 00:40:57 00:40:57 - 7,960 07:32
175 184 BARSI NATHALIE 01:14:15 V1F 22 00:40:57 00:29:36 - 7,960 07:32